This is the latest recevied weather packets stored in our database for station/object K9UO. If no packets are shown the sender has not sent any weather packets the latest 10 day(s).
| Time | Temp. | Humidity | Pressure | Rain* | Wind** | Luminosity | Snow |
|---|---|---|---|---|---|---|---|
| 1777867262 | 11.11° C | 45% | 1010.5 hPa | 0 mm | - | - | - |
| 1777866358 | 11.11° C | 43% | 1010.7 hPa | 0 mm | - | - | - |
| 1777865452 | 10.56° C | 35% | 1010.9 hPa | 0 mm | - | - | - |
| 1777864549 | 10° C | 27% | 1011 hPa | 0 mm | - | - | - |
| 1777863642 | 10° C | 25% | 1011.2 hPa | 0 mm | - | - | - |
| 1777862742 | 10° C | 27% | 1011.4 hPa | 0 mm | - | - | - |
| 1777861833 | 10.56° C | 29% | 1011.5 hPa | 0 mm | - | - | - |
| 1777860929 | 10° C | 28% | 1011.6 hPa | 0 mm | - | - | - |
| 1777860025 | 10° C | 19% | 1011.6 hPa | 0 mm | - | - | - |
| 1777859121 | 9.44° C | 19% | 1011.7 hPa | 0 mm | - | - | - |
| 1777858219 | 10° C | 27% | 1011.7 hPa | 0 mm | - | - | - |
| 1777857311 | 10° C | 33% | 1011.8 hPa | 0 mm | - | - | - |
| 1777856407 | 10° C | 32% | 1011.7 hPa | 0 mm | - | - | - |
| 1777855508 | 9.44° C | 28% | 1011.7 hPa | 0 mm | - | - | - |
| 1777854660 | 9.44° C | 29% | 1011.8 hPa | 0 mm | - | - | - |
| 1777853754 | 9.44° C | 23% | 1011.9 hPa | 0 mm | - | - | - |
| 1777852879 | 9.44° C | 19% | 1012.1 hPa | 0 mm | - | - | - |
| 1777851953 | 9.44° C | 21% | 1012.2 hPa | 0 mm | - | - | - |
| 1777851041 | 8.89° C | 8% | 1012.1 hPa | 0 mm | - | - | - |
| 1777850137 | 8.33° C | 1% | 1012 hPa | 0 mm | - | - | - |
| 1777849233 | 8.33° C | 1% | 1012.3 hPa | 0 mm | - | - | - |
| 1777848329 | 8.33° C | 1% | 1012.2 hPa | 0 mm | - | - | - |
| 1777847426 | 7.78° C | 1% | 1012.5 hPa | 0 mm | - | - | - |
| 1777846520 | 7.22° C | 1% | 1012.5 hPa | 0 mm | - | - | - |
| 1777845615 | 7.22° C | 1% | 1013 hPa | 0.51 mm | - | - | - |
* Rain latest hour (hover to see other rain measurements)
** Current wind speed in m/s (hover to see current wind gust speed)